Location: Days
(41.3591°N, 106.7339°W)
Time: 19:41:19
(UTC+00:00)

RS-15 - Pass Details

Date: 08 July 2022
Orbit: 1881 x 2163 km, 64.8° (Epoch: 15 August)

Event Time Altitude Azimuth Distance (km) Brightness Sun altitude
Rises 04:05:13 0° 323° (NW) 5,694 12.5 -12.9°
Reaches altitude 10° 04:09:01 10° 330° (NNW) 4,691 11.4 -13.4°
Maximum altitude 04:20:47 46° 41° (NE) 2,703 8.8 -14.8°
Enters shadow 04:31:26 12° 111° (ESE) 4,380 9.4 -16.1°
